Location: Quebec
(46.8000°N, 71.2500°W)
Time: 05:29:49
(UTC-04:00)

Tiangong 2 - Pass Details

Date: 16 October 2017
Orbit: 388 x 392 km, 42.8° (Epoch: 17 October)

Event Time Altitude Azimuth Distance (km) Brightness Sun altitude
Exits shadow 06:13:06 13° 252° (WSW) 1,277 3.1 -9.5°
Maximum altitude 06:15:27 27° 196° (SSW) 792 2.5 -9.1°
Drops below altitude 10° 06:18:13 10° 137° (SE) 1,419 4.7 -8.7°
Sets 06:20:28 0° 124° (SE) 2,273 6.1 -8.3°
